Location: Iesi
(43.5167°N, 13.2333°E)
Time: 01:44:52
(UTC+00:00)

Cosmos 2237 Rocket - Pass Details

Date: 08 August 2020
Orbit: 836 x 849 km, 71.0° (Epoch: 19 September)

Event Time Altitude Azimuth Distance (km) Brightness Sun altitude
Rises 22:37:30 0° 344° (NNW) 3,410 6.5 -30.1°
Reaches altitude 10° 22:40:43 10° 2° (N) 2,469 5.5 -30.2°
Maximum altitude 22:44:42 19° 47° (NE) 1,892 4.3 -30.3°
Enters shadow 22:47:05 15° 78° (ENE) 2,112 4.3 -30.4°
